Theta_e
317 317 317 316 316 318 321 323 324 325 325 325 324 323 322 323 323 323 322 320 320 320 319 319 318 316 316 318 319 317 317 317 315 314 316 317 318 323 326 325 324 325 324 323 324 324 323
316 316 317 316 316 317 321 323 324 325 325 325 324 323 323 322 323 322 321 320 319 319 319 318 318 314 311 317 317 316 316 315 315 315 315 316 318 320 321 324 324 324 324 323 323 323 322
315 316 316 316 316 316 320 324 324 324 324 324 323 324 323 323 322 322 321 320 319 318 318 318 315 312 310 315 316 314 313 313 313 313 314 316 317 317 320 324 323 324 325 325 324 323 324
315 315 316 315 315 315 318 323 324 324 324 323 323 323 323 322 321 321 320 318 317 316 316 314 312 309 313 314 313 312 313 316 315 315 315 315 316 316 318 321 322 324 324 325 325 325 323
314 315 315 315 315 314 317 322 324 324 324 323 323 323 323 322 321 321 317 316 314 314 313 311 310 311 315 311 312 314 314 315 316 315 315 315 316 317 318 321 323 324 325 325 325 324 324
318 314 315 316 315 315 316 321 324 324 324 323 324 323 323 322 321 319 314 310 309 310 310 309 311 311 312 314 313 313 314 314 316 317 317 316 317 320 320 321 324 324 325 325 325 325 324
317 319 314 316 316 315 316 319 323 325 325 326 325 324 322 318 318 316 309 308 314 315 314 317 317 314 314 313 312 313 315 315 315 316 319 319 321 321 321 322 322 322 323 323 323 323 322
317 320 318 316 315 316 317 320 323 325 325 324 324 320 316 315 314 308 305 312 312 311 314 313 312 311 311 310 310 312 313 313 315 317 318 319 321 321 322 322 322 323 323 323 323 323 323
321 318 322 320 318 318 316 320 323 324 325 321 318 314 312 308 305 303 310 311 305 303 311 314 311 310 310 309 311 311 310 312 315 316 317 319 320 320 319 320 321 321 322 323 323 322 322
323 322 317 319 324 318 321 320 322 323 317 312 307 307 309 307 305 309 310 308 302 304 319 316 309 310 309 310 311 310 312 312 313 314 315 316 317 318 318 319 319 320 319 320 321 322 322
323 325 324 317 320 322 320 322 321 314 311 309 309 307 305 304 308 307 310 307 306 310 322 311 308 307 307 311 310 311 311 311 314 315 313 315 315 314 315 316 317 318 318 318 319 319 320
323 324 325 324 321 320 320 317 312 310 309 307 305 304 304 303 307 308 304 305 310 315 320 309 310 308 308 309 310 309 310 311 311 312 313 314 314 313 312 313 312 313 314 315 316 317 318
324 323 321 320 315 312 310 309 309 307 307 306 304 303 303 303 306 301 304 309 311 318 309 309 308 307 309 309 310 310 312 313 314 315 316 316 315 315 313 313 313 312 314 316 316 318 320
318 316 312 311 310 309 308 307 306 306 306 305 303 302 301 303 303 300 306 310 315 312 310 306 306 306 308 309 309 310 310 311 312 312 315 315 315 315 315 314 314 314 314 315 316 316 317
310 308 308 307 306 306 306 306 304 304 303 302 302 303 303 303 303 302 308 311 310 309 306 305 306 307 308 308 307 309 309 309 310 310 313 314 314 315 314 314 314 315 316 315 317 315 317
308 308 307 307 306 305 303 302 302 302 302 303 304 304 305 303 303 304 308 306 306 304 303 304 306 306 306 308 307 306 307 308 308 310 310 310 313 311 311 312 312 314 315 317 317 319 319
308 306 305 304 303 302 302 302 303 303 303 303 305 305 303 303 304 306 309 306 305 303 304 304 304 304 303 303 304 304 304 305 305 305 306 307 309 311 309 310 310 311 314 316 313 315 322
307 306 304 304 303 302 302 302 303 303 304 303 304 305 302 303 307 306 307 306 304 305 304 305 305 305 305 305 305 305 305 305 305 305 305 305 306 307 307 307 307 307 309 311 316 314 313
307 307 305 306 304 304 304 303 303 303 303 303 304 302 302 304 307 307 305 305 304 304 304 304 304 304 304 305 305 305 305 304 303 304 304 306 307 307 306 305 306 305 305 306 309 312 312
303 303 303 303 303 303 303 302 302 302 302 303 301 303 301 302 304 305 304 304 304 303 303 303 304 303 304 304 304 304 305 304 303 304 303 303 304 305 307 305 305 306 306 307 309 313 313
302 302 302 302 302 303 302 302 302 302 302 301 301 302 302 303 301 304 304 303 303 304 302 302 302 303 303 304 303 302 302 302 302 302 302 303 304 304 304 304 305 305 304 305 307 310 310
301 302 302 302 302 302 302 302 302 302 301 300 299 301 300 301 302 302 302 303 302 302 301 301 301 301 301 301 301 300 300 300 301 301 301 302 303 303 303 303 304 305 306 306 306 306 305
301 301 301 301 301 302 302 302 301 300 300 299 299 300 300 300 300 302 302 301 301 300 300 299 299 300 299 299 298 298 298 298 299 300 300 301 302 301 303 303 304 306 306 305 306 305 305
300 300 300 300 300 300 300 300 299 299 299 299 299 299 300 301 299 300 299 299 299 298 298 298 297 298 297 297 296 296 297 297 297 298 298 298 299 300 303 303 305 304 306 306 305 305 306
299 299 300 299 299 299 299 299 298 297 297 299 298 298 299 301 299 299 298 298 297 297 297 297 297 296 296 296 298 298 299 299 300 300 300 301 301 301 301 304 303 303 304 304 304 305 305
299 299 299 299 298 298 298 297 296 295 295 298 298 298 298 299 299 298 298 297 298 299 299 297 297 296 297 298 298 299 298 298 299 301 301 301 302 303 300 302 303 303 303 304 306 305 307
298 297 297 296 296 295 294 294 294 294 294 297 297 297 297 298 297 296 298 298 297 297 298 297 297 297 297 299 300 299 299 299 301 300 300 301 303 303 302 301 301 302 303 302 306 305 305
294 294 293 293 293 292 292 293 292 293 293 296 296 297 297 297 297 296 296 296 296 296 298 297 297 298 298 299 299 300 300 300 301 300 300 301 302 303 304 303 304 304 303 303 305 305 304
293 293 292 292 292 292 293 293 294 295 294 295 296 296 296 296 297 296 296 295 295 295 296 296 297 297 298 299 300 300 300 301 300 301 301 301 301 303 303 304 303 301 302 304 303 304 304
Wind_Speed
43 42 41 39 37 36 35 34 33 30 30 29 25 23 22 21 20 20 19 19 21 21 20 22 23 24 23 10 16 14 13 9 10 10 11 10 11 14 16 16 15 17 18 24 24 17 19
46 45 43 42 40 39 38 37 35 32 32 30 28 27 25 24 22 22 20 20 21 21 21 22 23 22 16 19 9 11 15 14 12 12 14 14 15 13 14 17 16 19 22 20 22 22 23
49 48 46 45 43 41 40 39 37 34 33 32 30 29 28 26 25 23 22 22 22 21 20 21 20 19 16 25 12 10 16 17 15 14 16 16 19 18 11 14 17 19 19 20 22 21 22
51 50 49 47 46 44 43 42 40 38 37 34 33 32 29 29 26 24 24 21 19 19 18 18 18 13 12 15 13 9 5 4 4 5 7 8 8 17 21 20 22 16 19 19 20 16 10
53 52 51 50 49 47 45 44 43 41 40 38 37 36 34 33 28 26 23 20 18 19 20 17 11 6 11 10 4 5 5 6 6 6 5 6 8 13 11 15 15 17 18 20 17 13 12
55 54 53 52 51 49 47 47 46 43 41 42 42 39 38 32 28 26 21 17 15 17 15 9 8 6 10 4 6 7 6 7 7 10 10 10 10 10 14 14 16 17 18 17 17 12 11
57 56 54 54 52 50 49 49 48 47 46 48 43 45 40 30 25 23 15 8 6 6 14 15 5 13 8 9 15 16 10 9 14 17 16 19 13 18 20 20 20 21 23 24 22 19 21
59 58 56 54 53 52 50 50 50 52 51 55 49 45 34 26 20 16 11 14 8 4 10 19 21 23 22 17 13 15 15 11 12 19 18 18 21 19 19 20 19 20 24 25 24 21 21
60 60 58 56 54 52 50 52 54 58 56 54 44 34 24 16 11 9 9 10 8 6 8 10 11 10 8 9 10 8 9 13 18 20 21 23 21 10 10 17 18 22 22 24 27 22 24
60 63 60 59 56 54 54 57 56 60 49 39 26 23 19 14 9 9 7 5 7 6 5 11 8 7 7 5 6 7 6 9 8 9 12 16 17 21 23 23 19 28 18 23 24 21 17
52 66 62 61 56 59 63 65 59 51 39 29 24 19 17 15 8 10 9 6 7 1 5 8 8 5 6 9 3 7 3 6 10 11 5 5 4 10 15 16 16 29 20 23 23 22 22
51 55 62 66 54 60 63 59 48 38 33 29 26 23 21 18 12 12 12 9 5 4 8 8 7 7 11 10 7 2 6 6 7 10 13 18 17 12 14 14 11 16 16 19 19 18 17
63 57 49 52 55 49 41 39 37 35 31 27 26 25 23 20 12 15 15 9 4 6 2 8 7 6 5 6 6 6 8 10 10 13 14 16 19 14 13 16 14 12 12 10 14 15 21
44 46 45 44 40 37 36 35 33 30 28 27 28 23 20 16 16 18 16 6 7 4 8 3 4 6 9 4 8 5 8 9 8 9 14 17 20 16 4 8 15 16 15 14 17 18 21
51 41 33 30 32 35 34 37 35 32 28 24 22 18 17 17 15 16 11 3 4 5 3 3 4 9 11 11 4 5 8 13 15 10 12 14 20 3 7 8 8 11 19 23 24 26 22
37 38 43 41 38 38 40 34 28 28 27 26 22 16 11 15 14 13 5 4 4 2 2 2 5 2 7 7 7 4 8 4 7 3 5 11 15 18 14 8 16 15 14 9 8 10 28
36 37 35 36 35 34 29 29 31 30 28 27 18 10 9 14 14 10 4 8 6 7 4 4 7 11 8 9 10 11 6 10 14 14 11 10 11 11 15 16 20 17 9 3 4 6 7
30 32 39 34 29 27 32 33 30 29 29 22 12 4 12 17 6 4 4 4 3 8 5 6 3 9 12 12 13 14 17 15 11 17 15 17 18 17 23 21 23 25 21 21 8 4 7
40 39 33 31 33 35 34 31 29 29 29 17 6 6 11 12 4 6 5 7 7 6 9 9 8 6 8 12 10 13 16 17 17 16 11 11 8 16 23 21 25 30 30 26 24 10 19
28 30 34 33 31 30 29 29 29 31 27 15 7 3 2 7 2 7 8 9 9 3 8 8 10 7 9 13 14 9 12 12 14 13 12 11 15 23 20 24 24 27 27 20 13 10 10
29 30 30 29 28 29 28 29 31 31 25 10 4 3 7 4 4 8 7 5 12 8 8 9 6 10 10 6 11 13 15 17 16 15 12 7 17 23 26 30 29 32 33 29 21 22 14
23 26 27 27 26 26 27 29 29 25 21 11 7 4 5 5 13 13 8 9 9 10 7 8 9 10 8 11 15 17 18 19 19 20 21 18 17 19 24 25 29 32 33 29 27 28 27
20 21 22 22 25 28 28 26 23 22 19 7 6 7 9 7 3 6 9 11 10 9 9 12 12 12 12 14 17 17 20 23 20 20 21 20 17 19 23 23 25 17 30 29 24 25 26
21 22 23 24 24 23 23 22 21 21 15 6 10 9 6 5 8 10 6 6 9 9 11 11 9 11 15 14 16 21 25 27 27 26 25 22 23 18 19 20 24 24 17 28 28 25 24
21 21 21 22 21 20 20 21 23 19 16 7 8 9 7 4 13 11 7 6 7 9 10 13 14 15 14 13 9 10 10 15 21 24 25 22 21 18 18 18 22 29 22 20 16 20 19
24 26 24 21 19 18 18 17 17 17 15 8 9 7 3 2 6 7 4 8 7 8 9 12 9 7 6 5 7 11 10 17 9 10 18 17 18 14 18 22 23 22 24 13 30 18 18
21 22 21 20 19 17 16 16 16 14 14 9 7 8 5 4 3 5 6 6 6 4 5 7 8 10 12 8 10 14 16 20 12 15 12 9 6 16 18 18 19 24 26 23 13 10 6
19 18 17 16 15 14 14 13 12 13 14 11 7 8 6 4 4 6 10 10 7 8 6 1 3 11 7 7 10 13 13 10 7 13 11 13 11 11 10 13 20 18 23 22 10 11 3
19 17 16 16 15 15 13 13 13 13 13 11 4 6 3 3 4 4 8 13 14 14 13 7 7 7 5 4 5 3 8 7 14 13 10 5 2 6 8 7 7 17 19 14 19 25 9
Wind_Direction
235 234 234 234 234 233 232 233 234 237 242 247 251 254 259 264 271 279 285 295 298 299 302 306 312 317 322 271 277 271 285 289 309 292 290 285 292 271 263 267 267 272 268 271 273 274 268
236 236 236 235 235 235 234 234 236 239 243 249 252 253 256 264 269 277 281 289 292 296 302 305 309 312 308 275 259 256 277 277 274 268 275 268 258 279 298 277 276 279 290 283 282 270 263
237 236 236 236 236 235 235 235 236 236 243 250 258 257 258 262 271 272 282 286 291 295 299 303 304 306 285 263 274 281 277 274 263 249 259 268 264 254 253 278 272 273 272 273 263 261 260
238 237 237 236 236 235 235 235 234 237 241 245 252 255 258 263 268 270 280 283 291 294 297 296 294 295 268 283 277 271 276 274 240 236 225 228 244 260 256 258 270 262 264 268 269 245 279
239 237 237 237 237 235 235 235 235 236 241 246 249 251 251 259 267 273 275 279 286 289 291 288 288 250 271 282 279 261 267 249 260 244 225 230 212 229 242 246 255 244 257 266 284 193 222
240 238 238 237 237 237 235 235 236 237 243 248 245 249 252 249 256 267 271 281 292 289 284 271 242 235 252 272 286 278 271 253 250 232 244 228 220 222 222 236 246 259 252 253 249 253 244
240 239 239 239 238 238 237 236 236 236 238 239 238 245 237 237 243 254 263 284 263 240 222 229 278 245 257 275 284 271 254 261 263 253 250 211 229 227 233 238 247 269 278 274 274 281 279
242 241 240 240 239 239 238 238 238 239 237 235 238 228 220 223 231 243 235 230 247 244 278 254 253 257 265 270 273 263 245 255 250 251 256 252 242 254 272 270 264 265 268 265 271 269 268
240 241 241 240 240 239 238 239 239 240 234 229 220 206 200 196 208 205 221 214 229 214 251 240 229 236 226 216 235 257 226 240 253 264 260 254 265 230 281 270 264 257 258 274 279 287 282
244 240 237 239 240 238 235 235 236 237 217 200 185 180 179 175 188 196 204 196 184 193 259 176 198 194 192 207 248 224 225 229 230 265 273 267 279 273 269 255 252 268 263 271 274 272 269
249 250 239 237 237 235 232 230 231 205 189 182 174 160 146 156 168 167 186 187 179 171 247 124 146 153 185 209 4 180 207 196 262 250 211 239 261 287 276 271 275 271 283 278 274 275 287
242 250 245 240 223 219 209 204 187 176 171 163 154 150 158 171 168 187 174 159 134 223 232 159 156 193 192 199 194 223 230 231 274 274 256 262 270 271 266 282 277 289 281 273 273 257 256
236 228 217 197 187 175 170 167 164 162 161 160 159 160 166 164 175 174 162 149 199 236 146 167 175 198 241 183 210 221 221 227 251 276 267 256 236 234 228 270 253 249 257 261 247 234 242
183 175 162 157 155 159 157 155 157 161 161 160 160 165 168 179 176 164 157 197 208 226 194 41 171 210 230 189 236 235 263 260 217 262 288 276 268 266 82 258 280 274 241 245 270 264 269
148 144 152 158 164 156 161 166 168 163 166 167 150 158 170 183 174 166 176 186 197 241 341 231 213 246 222 216 220 256 266 279 280 290 268 296 277 22 298 315 296 278 245 264 270 263 269
155 154 156 158 166 173 173 179 177 168 157 156 158 156 171 173 169 155 157 221 193 73 130 222 236 327 280 272 274 260 262 317 311 336 285 280 288 278 278 261 264 254 336 284 243 260 258
165 172 167 162 168 172 172 170 163 162 159 161 154 144 173 162 149 175 189 194 179 169 238 236 260 257 255 263 268 267 276 294 310 292 300 291 268 271 283 274 273 265 232 308 302 286 295
161 161 164 165 166 164 163 162 163 165 163 157 156 116 168 156 159 152 203 217 166 180 201 214 270 276 281 282 272 270 265 255 277 298 294 293 296 282 278 283 290 293 269 267 269 270 271
167 165 163 166 162 159 158 160 165 167 167 150 105 99 161 158 174 188 179 212 212 196 239 222 218 225 272 270 277 264 268 281 289 291 293 341 281 279 273 266 255 251 257 255 262 257 255
159 158 155 156 156 156 156 163 170 169 162 160 116 116 136 204 278 224 203 224 201 214 264 274 264 255 266 264 259 264 278 280 290 305 317 293 276 267 267 274 285 284 287 298 262 248 251
148 151 153 153 156 158 162 165 169 169 170 163 100 152 168 164 215 229 238 201 218 184 221 221 226 237 243 242 252 265 278 294 297 280 275 273 272 273 270 273 275 281 269 267 249 260 258
137 142 144 149 153 156 163 166 169 176 176 166 120 138 194 176 191 197 179 194 207 221 208 237 231 282 309 291 286 300 303 289 282 289 286 269 273 281 284 281 274 271 259 262 273 272 273
150 156 155 154 160 166 170 169 170 173 174 153 140 148 169 155 181 196 200 228 229 259 244 251 261 270 255 256 271 276 279 280 271 265 266 263 268 277 273 285 281 290 259 253 253 261 267
157 158 156 157 161 164 166 167 173 178 174 177 173 174 192 182 188 217 229 230 250 236 250 266 249 260 274 288 284 280 270 265 261 261 259 262 263 261 265 275 270 273 293 246 249 257 258
153 153 153 155 158 163 164 170 173 173 174 171 174 190 203 202 192 207 203 235 261 258 246 254 263 273 282 277 283 274 259 256 256 251 247 237 242 250 255 256 280 289 279 261 261 274 264
148 154 149 148 156 160 161 160 166 174 175 161 176 191 198 214 216 203 210 223 244 247 259 255 257 261 247 256 252 249 262 278 281 313 295 235 249 236 240 255 259 267 286 337 314 250 267
136 132 142 148 149 155 165 169 170 172 171 166 187 163 180 199 205 196 205 234 222 247 277 269 251 262 235 237 243 251 260 264 269 280 305 288 251 233 230 244 256 263 274 283 278 256 300
133 140 143 147 151 161 172 171 175 181 183 165 173 185 196 204 234 226 240 236 231 233 255 265 295 232 237 243 249 256 258 263 263 284 306 302 287 244 231 240 258 317 271 265 239 346 300
128 129 134 137 142 158 158 164 170 174 181 170 159 181 200 223 257 275 251 242 240 243 254 236 258 297 260 270 263 314 304 283 285 284 314 293 348 305 289 290 217 250 282 300 301 311 283